一网星座-0025星 (ONEWEB-0025 )

导读 | 星芒AI

ONEWEB-0025 是 OneWeb 卫星星座计划中的一颗低轨通信卫星,旨在为全球提供高速互联网服务。该卫星采用模块化设计,具备高容量通信能力,支持偏远和农村地区的网络接入。作为 OneWeb 扩展其卫星群的一部分,ONEWEB-0025 有助于提升全球互联网覆盖范围与服务质量。该卫星由空中客车防务与航天公司制造,并通过火箭发射进入近地轨道,与其他 OneWeb 卫星共同构建全球通信网络。

基本信息
目录编号:
45138
目录名称:
ONEWEB-0025
国际标识:
2020-008H
轨道中心:
EARTH
卫星名称:
一网星座-0025星
卫星全名:
一网星座-0025星 (ONEWEB-0025 )
卫星状态:
在轨 (已飞行2137 天)
发射日期:
2020-02-06 UTC
国别 :
英国 (GB)
星等 :
--
轨道信息
数据来源 国际轨道数据 AOE轨道数据
星历时间 2025-12-13T07:29:22+0800
10小时前
查看轨道信息
2025-12-12T13:00:00+0800
1天前
查看轨道信息
半长轴 7599.844km 7599.829km
偏心率 0.000197 0.000194
轨道倾角 87.882° 87.881°
近地点辐角 110.248° 113.154°
升交点赤经 73.366° 73.520°
平近点角 249.886° 214.803°
近地点 1220.211km 1220.219km
远地点 1223.207km 1223.169km
周期 109.892分钟 109.892分钟
每日圈数 13.103755 13.103795
详细信息
平衡模式:
三轴稳定
覆盖范围:
全球
运营商:
一网卫星公司
运营商所在国:
英国
制造商(研发单位):
空客防务与航天公司
制造商所在国:
法国大都会
使用方式:
暂无
卫星简介
OneWeb卫星网络由648颗重约125公斤的微型卫星组成,运行在1200公里的轨道上。 每颗卫星都能够提供至少每秒8千兆位的吞吐量,以使用其高吞吐量的Ku频段有效载荷为家庭和移动平台提供互联网接入。该卫星仍在工作。
2D轨道图
3D轨道图
轨道高度分析图
轨道倾角分析图
轨道综合分析图
查看轨道综合分析图